Hourly Data Report for September 07, 2017

All times are specified in Local Standard Time (LST). Add 1 hour to adjust for Daylight Saving Time where and when it is observed.

DOAKTOWN AUTO RCS
NEW BRUNSWICK

46°35'06.090" N
66°00'35.071" W
43.00 m
8101201
71038
ADN

Download Data

Hourly Data (September 2017)
Hourly Data Report for September 7, 2017
Temp Definition
°C
Dew Point Temp Definition
°C
Rel Hum Definition
%
Wind Dir Definition
10's deg

Wind Spd Definition
km/h
Visibility Definition
km
Stn Press Definition
kPa
Hmdx Definition


Wind Chill Definition


Weather Definition


TIME
00:00 18.9 17.9 94 19 4   100.81     LegendNANA
01:00 19.1 18.1 94 20 5   100.76     LegendNANA
02:00 19.1 18.0 93 18 1   100.73     LegendNANA
03:00 18.9 17.9 94 16 4   100.68     LegendNANA
04:00 19.0 18.0 94 15 7   100.59     LegendNANA
05:00 19.2 18.2 94 15 9   100.45     LegendNANA
06:00 19.5 18.6 95 16 7   100.42     LegendNANA
07:00 19.9 19.0 95 12 5   100.32     LegendNANA
08:00 20.3 19.3 94 16 6   100.19 27   LegendNANA
09:00 20.8 19.7 93 16 5   100.13 28   LegendNANA
10:00 20.9 19.4 91 18 8   100.06 28   LegendNANA
11:00 21.5 19.2 87 18 13   99.98 28   LegendNANA
12:00 21.7 19.4 87 18 11   99.89 29   LegendNANA
13:00 21.4 19.7 90 18 9   99.81 29   LegendNANA
14:00 22.2 19.1 83 20 12   99.80 29   LegendNANA
15:00 21.7 18.4 81 20 11   99.78 28   LegendNANA
16:00 21.6 17.8 79 20 13   99.81 27   LegendNANA
17:00 20.9 17.3 80 21 13   99.82 26   LegendNANA
18:00 20.5 17.4 82 20 11   99.91 26   LegendNANA
19:00 19.3 14.7 75 22 14   99.98     LegendNANA
20:00 17.6 14.8 84 24 9   100.06     LegendNANA
21:00 17.1 14.8 87 23 8   100.12     LegendNANA
22:00 16.8 15.1 89 22 7   100.15     LegendNANA
23:00 16.3 15.0 92 25 7   100.20     LegendNANA

Notes on Data Quality.

Legend

  • E = Estimated
  • M = Missing
  • NA = Not Available
  • ‡ = Partner data that is not subject to review by the National Climate Archives
Date modified: